• In Uzbekistan
  • List of Countries
  • For 7 days
  • Water Temperature
  • Satellite Maps
  • Weather Map
  • Weather Widgets
  • user-avatar
    Login

    Hourly Weather Durres

    Today, 3 December, Saturday

    Time Temperature Precipitation Wind Pressure Humidity
    00:00 +7°C° 0 mm 2 mps 761 mmHg 88%
    01:00 +7°C° 0 mm 2 mps 762 mmHg 88%
    02:00 +7°C° 0 mm 3 mps 762 mmHg 88%
    03:00 +7°C° 0 mm 3 mps 762 mmHg 87%
    04:00 +7°C° 0 mm 3 mps 762 mmHg 87%
    05:00 +7°C° 0 mm 3 mps 763 mmHg 86%
    06:00 +7°C° 0 mm 3 mps 763 mmHg 85%
    07:00 +6°C° 0 mm 4 mps 763 mmHg 84%
    08:00 +9°C° 0 mm 3 mps 763 mmHg 77%
    09:00 +10°C° 0 mm 3 mps 764 mmHg 70%
    10:00 +12°C° 0 mm 3 mps 764 mmHg 64%
    11:00 +13°C° 0 mm 3 mps 764 mmHg 60%
    12:00 +14°C° 0 mm 3 mps 764 mmHg 56%
    13:00 +16°C° 0 mm 3 mps 763 mmHg 53%
    14:00 +13°C° 0 mm 3 mps 763 mmHg 58%
    15:00 +12°C° 0 mm 3 mps 763 mmHg 64%
    16:00 +10°C° 0 mm 3 mps 763 mmHg 70%
    17:00 +10°C° 0 mm 3 mps 764 mmHg 71%
    18:00 +9°C° 0 mm 3 mps 764 mmHg 72%
    19:00 +9°C° 0 mm 3 mps 765 mmHg 73%
    20:00 +9°C° 0 mm 3 mps 765 mmHg 73%
    21:00 +9°C° 0 mm 3 mps 765 mmHg 73%
    22:00 +9°C° 0 mm 3 mps 765 mmHg 74%
    23:00 +9°C° 0 mm 3 mps 766 mmHg 74%

    Tomorrow, 4 December, Sunday

    Time Temperature Precipitation Wind Pressure Humidity
    00:00 +9°C° 0 mm 3 mps 766 mmHg 75%
    01:00 +9°C° 0 mm 3 mps 766 mmHg 76%
    02:00 +9°C° 0 mm 3 mps 766 mmHg 76%
    03:00 +7°C° 0 mm 4 mps 766 mmHg 77%
    04:00 +7°C° 0 mm 4 mps 766 mmHg 78%
    05:00 +7°C° 0 mm 4 mps 766 mmHg 77%
    06:00 +7°C° 0 mm 4 mps 766 mmHg 77%
    07:00 +7°C° 0 mm 4 mps 767 mmHg 76%
    08:00 +8°C° 0 mm 4 mps 767 mmHg 71%
    09:00 +11°C° 0 mm 4 mps 767 mmHg 66%
    10:00 +12°C° 0 mm 4 mps 767 mmHg 61%
    11:00 +13°C° 0 mm 4 mps 767 mmHg 59%
    12:00 +13°C° 0 mm 3 mps 767 mmHg 58%
    13:00 +14°C° 0 mm 3 mps 767 mmHg 56%
    14:00 +13°C° 0 mm 3 mps 767 mmHg 61%
    15:00 +12°C° 0 mm 3 mps 767 mmHg 65%
    16:00 +11°C° 0 mm 3 mps 767 mmHg 70%
    17:00 +10°C° 0 mm 3 mps 767 mmHg 71%
    18:00 +10°C° 0 mm 3 mps 768 mmHg 72%
    19:00 +9°C° 0 mm 3 mps 768 mmHg 73%
    20:00 +8°C° 0 mm 4 mps 768 mmHg 73%
    21:00 +8°C° 0 mm 4 mps 769 mmHg 74%
    22:00 +7°C° 0 mm 4 mps 769 mmHg 74%
    23:00 +7°C° 0 mm 4 mps 769 mmHg 74%

    Day after tomorrow, 5 December, Monday

    Time Temperature Precipitation Wind Pressure Humidity
    00:00 +7°C° 0 mm 4 mps 769 mmHg 74%
    01:00 +7°C° 0 mm 4 mps 769 mmHg 75%
    02:00 +7°C° 0 mm 4 mps 769 mmHg 75%
    03:00 +7°C° 0 mm 4 mps 769 mmHg 75%
    04:00 +7°C° 0 mm 4 mps 769 mmHg 74%
    05:00 +6°C° 0 mm 4 mps 769 mmHg 75%
    06:00 +6°C° 0 mm 4 mps 769 mmHg 75%
    07:00 +6°C° 0 mm 4 mps 770 mmHg 75%
    08:00 +8°C° 0 mm 4 mps 770 mmHg 70%
    09:00 +11°C° 0 mm 4 mps 770 mmHg 65%
    10:00 +12°C° 0 mm 3 mps 770 mmHg 60%
    11:00 +13°C° 0 mm 3 mps 770 mmHg 58%
    12:00 +14°C° 0 mm 3 mps 769 mmHg 56%
    13:00 +16°C° 0 mm 2 mps 769 mmHg 53%
    14:00 +15°C° 0 mm 2 mps 769 mmHg 59%
    15:00 +14°C° 0 mm 2 mps 769 mmHg 64%
    16:00 +12°C° 0 mm 2 mps 769 mmHg 70%
    17:00 +12°C° 0 mm 2 mps 769 mmHg 71%
    18:00 +12°C° 0 mm 2 mps 769 mmHg 71%
    19:00 +10°C° 0 mm 2 mps 770 mmHg 72%
    20:00 +10°C° 0 mm 3 mps 770 mmHg 72%
    21:00 +10°C° 0 mm 3 mps 770 mmHg 73%
    22:00 +10°C° 0 mm 3 mps 770 mmHg 73%
    23:00 +10°C° 0 mm 3 mps 770 mmHg 74%

    6 December, Tuesday

    Time Temperature Precipitation Wind Pressure Humidity
    00:00 +10°C° 0 mm 4 mps 770 mmHg 75%
    01:00 +10°C° 0 mm 4 mps 769 mmHg 76%
    02:00 +10°C° 0 mm 4 mps 769 mmHg 76%
    03:00 +8°C° 0 mm 4 mps 769 mmHg 77%
    04:00 +8°C° 0 mm 4 mps 769 mmHg 77%
    05:00 +8°C° 0 mm 4 mps 769 mmHg 78%
    06:00 +8°C° 0 mm 4 mps 769 mmHg 79%
    07:00 +8°C° 0 mm 4 mps 769 mmHg 80%
    08:00 +11°C° 0 mm 3 mps 769 mmHg 75%
    09:00 +12°C° 0 mm 3 mps 769 mmHg 70%
    10:00 +14°C° 0 mm 3 mps 769 mmHg 65%
    11:00 +16°C° 0 mm 3 mps 769 mmHg 64%
    12:00 +16°C° 0 mm 2 mps 768 mmHg 63%
    13:00 +17°C° 0 mm 2 mps 768 mmHg 62%
    14:00 +15°C° 0 mm 2 mps 768 mmHg 69%
    15:00 +14°C° 0 mm 2 mps 768 mmHg 75%
    16:00 +13°C° 0 mm 2 mps 768 mmHg 82%
    17:00 +12°C° 0 mm 2 mps 768 mmHg 83%
    18:00 +10°C° 0 mm 2 mps 768 mmHg 84%
    19:00 +10°C° 0 mm 2 mps 768 mmHg 85%
    20:00 +10°C° 0 mm 2 mps 768 mmHg 85%
    21:00 +10°C° 0 mm 2 mps 768 mmHg 85%
    22:00 +10°C° 0 mm 2 mps 768 mmHg 86%
    23:00 +10°C° 0.1 mm 2 mps 768 mmHg 85%

    7 December, Wednesday

    Time Temperature Precipitation Wind Pressure Humidity
    00:00 +10°C° 0.1 mm 2 mps 768 mmHg 84%
    01:00 +10°C° 0.1 mm 2 mps 768 mmHg 84%
    02:00 +10°C° 0.1 mm 2 mps 768 mmHg 83%
    03:00 +10°C° 0.1 mm 2 mps 767 mmHg 83%
    04:00 +10°C° 0.1 mm 2 mps 767 mmHg 83%
    05:00 +10°C° 0 mm 2 mps 768 mmHg 82%
    06:00 +10°C° 0 mm 2 mps 768 mmHg 82%
    07:00 +10°C° 0 mm 2 mps 768 mmHg 81%
    08:00 +11°C° 0 mm 3 mps 768 mmHg 76%
    09:00 +12°C° 0 mm 3 mps 768 mmHg 72%
    10:00 +13°C° 0 mm 3 mps 769 mmHg 67%
    11:00 +14°C° 0 mm 3 mps 768 mmHg 65%
    12:00 +16°C° 0 mm 3 mps 768 mmHg 62%
    13:00 +16°C° 0 mm 3 mps 768 mmHg 59%
    14:00 +14°C° 0 mm 3 mps 768 mmHg 64%
    15:00 +13°C° 0 mm 3 mps 768 mmHg 68%
    16:00 +12°C° 0 mm 3 mps 768 mmHg 73%
    17:00 +11°C° 0 mm 4 mps 769 mmHg 73%
    18:00 +11°C° 0 mm 4 mps 769 mmHg 74%
    19:00 +9°C° 0 mm 5 mps 769 mmHg 74%
    20:00 +9°C° 0 mm 5 mps 770 mmHg 73%
    21:00 +9°C° 0 mm 5 mps 770 mmHg 72%
    22:00 +8°C° 0 mm 5 mps 770 mmHg 71%
    23:00 +8°C° 0 mm 5 mps 770 mmHg 70%

    8 December, Thursday

    Time Temperature Precipitation Wind Pressure Humidity
    00:00 +8°C° 0 mm 5 mps 770 mmHg 69%
    01:00 +7°C° 0 mm 5 mps 770 mmHg 68%
    02:00 +7°C° 0 mm 5 mps 771 mmHg 68%
    03:00 +7°C° 0 mm 5 mps 771 mmHg 67%
    04:00 +6°C° 0 mm 5 mps 771 mmHg 67%
    05:00 +6°C° 0 mm 5 mps 771 mmHg 67%
    06:00 +6°C° 0 mm 5 mps 771 mmHg 67%
    07:00 +6°C° 0 mm 4 mps 772 mmHg 67%
    08:00 +7°C° 0 mm 4 mps 772 mmHg 63%
    09:00 +10°C° 0 mm 4 mps 772 mmHg 60%
    10:00 +11°C° 0 mm 4 mps 772 mmHg 56%
    11:00 +12°C° 0 mm 4 mps 772 mmHg 54%
    12:00 +13°C° 0 mm 3 mps 772 mmHg 52%
    13:00 +14°C° 0 mm 3 mps 772 mmHg 51%
    14:00 +13°C° 0 mm 3 mps 772 mmHg 56%
    15:00 +12°C° 0 mm 3 mps 772 mmHg 61%
    16:00 +10°C° 0 mm 2 mps 772 mmHg 67%
    17:00 +10°C° 0 mm 3 mps 772 mmHg 69%
    18:00 +9°C° 0 mm 3 mps 772 mmHg 71%
    19:00 +8°C° 0 mm 3 mps 772 mmHg 73%
    20:00 +8°C° 0 mm 3 mps 772 mmHg 74%
    21:00 +8°C° 0 mm 3 mps 772 mmHg 74%
    22:00 +7°C° 0 mm 3 mps 772 mmHg 75%
    23:00 +7°C° 0 mm 3 mps 772 mmHg 75%
    Show more